Regional Weather Roundup
Issued by NWS

Home | Current Version | Previous Version | Text Only | Print | Product List | Glossary On
Versions: 1 2 3 4 5 6 7 8 9 10 11 12 13 14 15 16 17 18 19 20 21 22 23 24 25 26 27 28 29 30 31 32 33 34 35 36 37 38 39 40 41 42 43 44 45 46 47 48 49 50
000
ASHW40 PHFO 061743
RWRHI

WEATHER ROUNDUP FOR HAWAII
NATIONAL WEATHER SERVICE HONOLULU HI
700 AM HST MON JUL 06 2015

THIS IS AN AUTOMATED REPORT THAT HAS NOT BEEN QUALITY CONTROLLED.

NOTE..."FAIR" INDICATES FEW OR NO CLOUDS BELOW 12,000 FEET WITH NO
SIGNIFICANT WEATHER AND/OR OBSTRUCTIONS TO VISIBILITY.

* - THESE SITES REPORT LIMITED FIELDS

HIZ001>004-061800-
KAUAI-NIIHAU-

CITY           SKY/WX    TMP DP  RH WIND       PRES   REMARKS
LIHUE APT      MOSUNNY   79  69  71 NE13      30.00S
PORT ALLEN*    NOT AVBL
POIPU*           N/A     79 N/A N/A NE5         N/A
PRINCEVILLE*     N/A     72 N/A N/A MISG        N/A
KOKOLE POINT*  NOT AVBL
MOLOAA DAIRY*  NOT AVBL
WAIMEA HTS*      N/A     81  63  54 E3          N/A
PUU OPAE*        N/A    N/A N/A N/A W2          N/A
PUU LUA*       NOT AVBL
MAKAHA RIDGE*    N/A     72  61  68 SE1         N/A
$$

HIZ005>011-061800-
OAHU-

CITY           SKY/WX    TMP DP  RH WIND       PRES   REMARKS
HONOLULU       PTSUNNY   79  67  66 NE6       29.97R
KALAELOA       MOSUNNY   75  66  73 N3        29.99R
KANEOHE MCB    CLOUDY    78  69  73 NE8       29.96R
WHEELER FIELD  PTSUNNY   71  67  87 W5        29.98S
BELLOWS*         N/A    N/A N/A N/A NE14        N/A
KAHUKU*          N/A    N/A N/A N/A E7G13       N/A
WHEELER*       NOT AVBL
WAIANAE HARBOR NOT AVBL
DILLINGHAM*      N/A     68  64  88 MISG        N/A
KAHUKU TRN*      N/A     73  68  83 E5G17       N/A
KAWAILOA*        N/A     72  66  83 E7          N/A
KII*             N/A     77  72  83 E13G18      N/A
MAKUA RANGE*     N/A     75  64  69 E3G10       N/A
OAHU FOREST NW   N/A     66  66 100 CALM        N/A
SCHOFIELD BRK*   N/A     66  63  88 MISG        N/A
SCHOFIELD S*   NOT AVBL
WAIANAE VLY*     N/A     86  73  66 MISG        N/A  HX  93
KUAOKALA*        N/A     73  66  78 NE16G24     N/A
HONOULIUULI*   NOT AVBL
MOKUOLOE IS*     N/A    N/A N/A N/A MISG        N/A
PALEHUA*         N/A     70  63  78 NE8G18      N/A
WAIAWA PHB*    NOT AVBL
$$

HIZ012>013-061800-
MOLOKAI-

CITY           SKY/WX    TMP DP  RH WIND       PRES   REMARKS
MOLOKAI AIRPT  MOSUNNY   76  66  71 NE9       29.99R
KALAUPAPA      NOT AVBL
MAKAPULAPAI*     N/A     81  70  69 E13G18      N/A
MOLOKAI 1*       N/A     81  73  78 E1G10       N/A
PUU ALII*        N/A     59  59 100 CALM        N/A
$$

HIZ016-061800-
KAHOOLAWE-

CITY           SKY/WX    TMP DP  RH WIND       PRES   REMARKS
KAHOOLAWE*     NOT AVBL
HAKIOAWA*        N/A     74  71  90 MISG        N/A
HONOKANAIA*      N/A     77  65  66 N10       29.98R
KANELOA*         N/A     73  66  78 N9G18     30.02R
KEALIALALO*      N/A     73  68  83 E6G18     29.98R
LUA MAKIKA*    NOT AVBL
$$

HIZ014>015-061800-
LANAI-

CITY           SKY/WX    TMP DP  RH WIND       PRES   REMARKS
LANAI CITY     FAIR      72  65  78 E15       30.02R
LANAI 1*         N/A     70  64  83 NE18G26     N/A
$$

HIZ017>028-061800-
MAUI-

CITY           SKY/WX    TMP DP  RH WIND       PRES   REMARKS
KAHULUI        MOSUNNY   77  66  68 NE7       29.98R
KAPALUA-W MAUI MOSUNNY   75  66  73 NE7       29.98R
HANA AIRPORT   CLOUDY    77  75  94 NE10      30.02S
HANA*            N/A     73 N/A N/A SW3         N/A
HALEAKALA SUMM   N/A     48  28  46 E17         N/A
MAALAEA BAY*   NOT AVBL
HALEAKALA*     NOT AVBL
KAUPO GAP*       N/A     59  50  72 NW5G10      N/A
KULA 1*          N/A     53  36  52 E3          N/A
$$

HIZ023>026-061800-
BIG ISLAND OF HAWAII COAST AND LOWER SLOPES-

CITY           SKY/WX    TMP DP  RH WIND       PRES   REMARKS
KAILUA KONA    MOSUNNY   80  67  64 E3        29.93R
HILO           CLOUDY    73  69  87 W8        29.98S
HONOKAA*       NOT AVBL
KAWAIHAE MWT*    N/A     79 N/A N/A E9G17       N/A
KAWAIHAE*        N/A     81 N/A N/A E8G18       N/A
SOUTH POINT*     N/A     72 N/A N/A NE8G14      N/A
UPOLU AIRPORT*   N/A    N/A N/A N/A E13         N/A
KAMUELA*       CLOUDY    68  63  83 NE14      30.07S
HAKALAU*         N/A     53  53  99 NW3         N/A
KALOKO-HONOKO*   N/A     81  66  61 NE3       29.93R
PALI 2*          N/A     66  61  82 NE17G25     N/A
KEALAKOMO*       N/A     81  66  61 N14G21      N/A
KAUPULEHU*       N/A     81  64  57 S3G9        N/A
KAPAPALA*        N/A     63  60  91 N3          N/A
LOWER KAHUKU*    N/A     61  59  94 VRB2        N/A
PUHE CS*         N/A     79  64  61 E12G24      N/A
PUHO CS*         N/A     75  65  71 E3          N/A
PTA KEAMUKU*     N/A     64  54  68 CALM        N/A
WAIKOLOA*        N/A     79  63  57 E15G23      N/A
$$

HIZ027>028-061800-
BIG ISLAND OF HAWAII INTERIOR AND SUMMMITS-

CITY           SKY/WX    TMP DP  RH WIND       PRES   REMARKS
BRADSHAW FIELD SUNNY     56  49  78 SE7       30.27R
MK VISITOR CEN   N/A      0   0 100 MISG        N/A
MAUNA KEA*       N/A     41   0  17 E17         N/A
MAUNA LOA*       N/A     46  -6  11 MISG        N/A
MAUNA LOA 1*   NOT AVBL
PTA KIPUKA*      N/A     57  52  82 SE3         N/A
PTA RANGE 17*    N/A     48  43  81 SE7         N/A
PTA WEST*        N/A     73  68  83 SE5G12      N/A
NENE CABIN*      N/A     48  36  61 N3G12       N/A
AHUMOA*          N/A     60  49  66 VRB3        N/A
PTA PORTABLE*  NOT AVBL
PUU MALI*        N/A     66  37  34 E9          N/A
$$

HIC003-061800-
NORTHWEST ISLANDS-

CITY           SKY/WX    TMP DP  RH WIND       PRES   REMARKS
MIDWAY ISLAND  CLEAR     75  66  73 NE6       30.06R
MIDWAY NOS*    NOT AVBL
FRENCH FRIGATE NOT AVBL
$$

PHZ110>124-180-061800-
BUOY REPORTS

STATION/POSITION TIME  TEMP    WIND        PRES    WAVE   SWELL
                       AIR SEA DIR/SP/G            HT/PER HT/DIR
                 (UTC) (F)     (DEG/KT/KT) (MB)    (FT/S) (FT/D)
BUOY 51001       NOT AVBL
BUOY 51101       1700   80 80  100/ 12/ 14 1016.1R   5/13   5/170
BUOY 51100       NOT AVBL
BUOY 51002       1700   80 81   70/ 16/ 19 1012.8R   6/15   3/190
BUOY 51003       1700   80 82   60/ 10/ 12 1014.0R   6/16   5
BUOY 51004       1645   79 80   40/ 16/ 17 1012.5R   7/16   5/220
BARBERS PT BUOY  NOT AVBL
WAIMEA BAY BUOY  1700      79                N/A     3/10
KAILUA BAY BUOY  1700      80                N/A     4/ 8   2/130
LANAI BUOY       NOT AVBL
BARBERS PT 2     1700      80                N/A     5/17   3/190
PAUWELA MAUI     1700      79                N/A     3/ 9   2/ 20
HILO             1700      79                N/A     5/ 8   2/ 70
KANEOHE BAY BUOY 1700      79                N/A     3/ 8
HANALEI KAUAI    1700      80                N/A     3/ 9
KAHULUI HARBOR   1700   77 81   10/  7/  9 1015.2R
HONOLULU HARBOR  1700   78 80   20/  1/  3 1015.2R
KILO NALU        NOT AVBL
HILO HARBOR      1700   74 78  340/  7/  9 1015.4R
MOKUOLOE         1700   79 83   50/ 10/ 12 1015.3R
NAWILIWILI       1700   78 82   50/  8/ 12 1015.7R
WHOTS BUOY       NOT AVBL
BUOY 51028       NOT AVBL
$$

......................KEY........................................
  SKY/WX - SKY CONDITIONS/PRESENT WEATHER
  TMP    - TEMPERATURE IN FAHRENHEIT
  DWPT   - DEWPOINT IN FAHRENHEIT
  RH     - RELATIVE HUMIDITY IN PERCENT
  WIND   - DIRECTION AND SPEED /MPH FOR ISLANDS...KTS FOR BUOYS/
  PRES   - MEAN SEA LEVEL PRESSURE IN INCHES OF HG
  VSB    - VISIBILITY IN MILES
  HX     - HEAT INDEX
  WCI    - WIND CHILL INDEX
  VRB    - VARIABLE WIND DIRECTION
  N/A    - NOT AVAILABLE



USA.gov is the U.S. government's official web portal to all federal, state and local government web resources and services.